Wind_Speed
8 7 8 7 7 7 7 7 6 6 6 6 6 6 6 7 7 8 8 9 9 9 10 10 10 10 9 9 9 8 8 8 7 7 7 7 7 7 7 7 8 9 9
8 7 7 7 7 7 7 7 6 6 5 4 4 4 5 5 5 6 6 7 7 7 7 8 8 8 8 8 7 7 7 6 6 6 6 6 6 6 6 7 8 9 9
9 8 7 7 7 7 7 7 6 5 5 4 4 4 3 3 4 4 5 5 6 6 6 6 7 7 7 6 6 5 5 5 5 4 5 5 5 6 6 6 7 9 9
9 8 7 7 7 7 7 7 7 6 6 5 5 5 4 4 4 4 4 5 5 6 6 6 6 6 5 5 4 4 3 3 3 3 3 4 4 5 6 6 7 8 9
10 10 9 8 8 7 7 8 7 7 6 6 6 6 6 6 5 6 6 6 6 6 6 6 6 6 5 4 4 3 2 1 1 1 2 2 3 4 5 6 7 7 8
12 12 10 9 9 8 8 8 8 7 8 8 8 8 8 8 7 7 8 7 7 7 7 7 6 6 6 5 4 3 2 2 1 1 2 3 3 4 5 5 6 7 8
14 13 12 11 10 10 10 9 9 9 9 10 10 10 10 10 10 9 10 10 10 10 9 9 8 8 7 6 6 6 5 4 3 3 3 4 4 5 5 5 6 7 8
15 15 14 13 12 12 11 11 11 11 11 11 11 11 11 11 11 11 12 12 12 12 11 11 10 10 10 9 8 8 8 7 6 6 5 6 6 6 6 6 6 7 7
16 16 15 15 14 13 13 13 13 13 13 13 13 13 13 13 13 13 13 14 14 14 13 13 13 13 12 12 11 10 10 9 9 8 8 8 8 7 8 8 8 8 8
17 17 16 15 15 15 15 16 16 15 16 15 15 15 15 15 15 15 15 15 16 16 16 16 16 16 16 15 14 13 12 12 11 11 10 10 10 10 10 10 10 9 10
19 18 18 17 17 17 18 18 18 18 19 18 18 17 17 16 17 17 18 18 18 19 19 19 19 19 19 18 17 16 15 14 14 13 13 12 12 12 12 12 12 12 11
21 20 19 19 19 20 20 20 20 20 21 21 20 20 19 19 19 19 20 20 21 21 21 21 21 22 21 21 20 19 18 17 16 16 15 15 15 15 15 15 14 14 14
22 21 21 20 21 22 22 22 23 22 22 22 22 22 21 21 21 21 21 22 22 22 22 23 24 24 24 23 23 22 21 19 19 19 18 17 17 17 17 17 17 17 16
21 22 22 23 23 24 24 25 24 24 24 25 25 24 24 23 23 24 23 24 24 25 24 24 25 25 26 26 25 24 23 21 20 20 20 20 19 19 18 19 20 20 19
21 22 23 22 22 22 24 25 26 27 26 27 27 27 27 26 26 27 27 27 27 27 25 24 25 25 25 26 25 25 25 24 22 22 23 22 22 21 21 21 22 22 22
23 23 23 23 23 24 25 25 25 27 28 27 27 28 29 29 29 28 29 28 27 25 25 25 25 25 25 27 27 26 26 26 25 24 24 25 24 24 23 23 24 24 24
24 24 23 24 25 26 25 25 26 26 25 26 27 28 29 29 29 28 29 29 28 27 26 26 26 26 26 28 28 27 27 28 27 27 27 27 26 26 25 25 26 26 26
24 24 24 25 26 27 27 27 28 29 28 28 28 28 29 29 30 29 30 30 29 28 28 27 26 27 28 28 28 28 27 29 28 29 29 28 28 28 28 27 27 27 28
25 25 26 27 28 28 28 29 30 30 30 30 30 30 30 29 28 29 30 30 30 29 28 28 28 28 28 29 29 29 29 30 30 30 30 30 29 30 30 29 29 28 28
25 25 26 27 28 29 29 30 30 31 31 32 32 31 31 31 30 31 31 31 31 30 30 30 30 30 29 29 30 30 31 31 31 30 30 30 30 31 31 31 31 30 28
25 26 27 28 29 30 31 31 32 32 32 33 33 33 33 33 34 33 33 32 33 32 32 32 32 32 31 31 31 31 32 33 32 31 31 31 31 32 32 32 32 31 29
26 28 29 31 32 32 33 33 33 33 34 34 34 35 35 35 35 35 35 34 34 34 34 34 34 34 33 33 32 32 32 32 33 33 33 33 32 33 33 33 33 32 31
26 28 29 31 32 33 34 34 34 34 35 35 35 35 35 35 35 36 36 36 36 36 36 36 36 35 34 34 33 33 33 33 33 33 33 33 34 34 34 34 34 35 34
27 28 29 30 31 32 33 34 34 35 35 36 36 36 36 36 36 36 36 36 37 37 37 37 37 36 35 35 34 34 34 34 34 34 34 34 35 35 35 35 36 35 36
25 27 29 30 31 32 33 34 34 34 35 36 36 36 36 36 36 36 36 36 36 37 37 37 37 37 36 36 36 35 35 35 35 35 34 35 36 35 36 37 37 37 37
25 26 27 29 30 31 32 32 33 33 34 34 35 36 36 37 37 36 36 37 37 37 38 38 38 38 38 37 37 36 36 37 37 37 36 36 36 36 37 38 38 38 38
Wind_Direction
353 348 344 343 344 350 358 5 9 15 22 29 32 35 36 35 32 31 29 28 27 27 27 28 31 35 37 41 46 52 57 61 67 74 81 89 97 104 112 119 124 126 124
341 338 334 333 335 338 344 349 353 357 2 8 11 17 24 26 24 22 20 16 15 17 18 18 19 23 29 34 39 47 53 60 66 73 81 89 99 110 118 123 129 133 132
337 330 326 327 328 330 334 336 337 339 341 340 341 345 350 356 0 0 1 358 355 355 359 1 3 6 13 21 28 39 48 54 66 74 83 91 102 115 126 130 135 141 140
331 324 317 320 321 322 324 324 323 322 322 319 317 316 315 314 316 320 323 327 332 333 335 340 342 345 350 358 7 21 35 44 62 77 90 101 112 123 133 139 143 147 148
325 319 310 309 311 312 312 312 312 308 305 303 301 300 299 297 296 297 301 305 309 311 312 316 319 320 325 327 332 344 2 10 58 98 116 126 134 139 142 147 152 153 154
321 317 310 302 302 302 302 301 301 297 293 291 289 289 287 287 285 287 290 294 296 298 296 295 296 297 299 301 297 291 282 272 240 195 183 175 170 165 160 158 162 163 162
316 311 310 302 301 300 296 293 292 288 285 283 281 281 281 281 280 280 281 284 286 286 286 284 284 283 280 279 278 271 262 251 240 227 215 201 192 186 180 174 173 173 173
312 309 307 304 301 299 295 289 285 283 281 279 279 279 279 280 280 278 278 280 281 282 281 279 276 276 274 272 271 267 257 250 243 233 223 215 208 201 195 190 187 186 183
310 307 304 301 297 294 288 284 282 278 277 275 275 276 277 278 278 278 278 278 281 280 278 275 272 269 269 267 267 266 259 249 244 237 227 222 219 213 207 201 198 195 191
305 303 301 296 289 286 282 278 275 271 269 270 271 270 271 273 274 275 276 276 277 279 277 272 270 267 265 263 262 262 258 250 243 238 232 227 223 219 214 209 206 203 199
297 294 292 288 286 281 278 275 270 268 267 267 266 266 268 271 272 273 275 276 276 276 276 273 269 269 265 263 260 257 254 250 245 239 235 230 225 222 218 215 212 209 206
295 291 287 283 282 280 276 272 267 268 268 266 266 268 269 269 271 273 276 276 277 277 275 274 272 268 265 263 260 255 251 249 245 240 237 233 228 224 222 218 215 212 210
291 287 283 281 281 281 276 274 270 268 267 267 266 267 268 268 269 271 272 272 275 277 276 274 275 271 265 263 261 256 251 248 245 240 237 234 231 227 225 221 217 214 212
292 291 284 278 279 281 274 274 273 270 269 266 264 263 265 267 267 268 268 269 271 272 273 271 273 273 269 267 265 258 252 247 245 240 237 235 232 228 227 224 219 217 215
294 292 289 284 283 284 282 280 276 274 269 265 265 264 264 264 265 267 266 267 267 269 273 273 270 271 269 265 263 260 253 246 244 242 239 236 234 232 229 227 223 219 217
295 292 290 287 286 284 282 282 283 280 273 272 269 268 267 266 267 269 269 268 269 270 273 275 271 270 268 266 263 260 256 247 244 242 240 236 235 233 232 229 226 223 219
293 292 291 288 288 287 287 286 286 290 287 284 279 277 275 271 269 269 269 267 269 271 273 275 271 268 269 268 264 259 256 250 247 242 240 237 235 233 233 230 228 226 223
290 291 291 289 288 288 288 290 289 289 289 288 284 281 281 277 273 273 274 271 271 273 272 274 271 270 270 267 261 257 254 252 250 245 242 240 236 233 232 231 229 227 227
289 291 290 291 290 289 288 288 288 287 287 288 287 284 283 282 280 279 278 274 273 273 273 273 271 269 268 265 261 255 254 252 251 247 242 240 237 234 232 230 230 229 229
291 291 292 293 293 292 291 291 291 289 289 289 288 285 285 284 281 279 278 276 273 272 272 271 270 268 266 263 260 256 255 251 250 246 243 240 236 233 232 230 230 230 229
294 295 295 295 296 296 296 296 294 293 291 290 287 285 283 282 280 279 277 275 274 273 271 270 268 267 265 263 260 256 253 250 248 245 242 239 235 232 232 231 228 228 228
295 297 297 297 297 297 297 298 296 294 292 290 288 286 284 282 280 278 276 274 273 271 270 268 267 266 263 262 258 255 250 249 247 244 242 238 235 233 232 230 227 226 226
296 296 296 297 297 298 299 299 298 296 294 292 290 288 285 283 280 277 276 274 272 270 269 267 265 264 260 259 257 254 251 248 247 243 241 238 235 233 230 229 227 226 225
298 298 299 299 299 300 300 299 298 297 295 293 291 289 286 284 281 279 276 275 273 270 269 268 265 263 259 256 255 254 251 247 244 241 238 238 237 233 231 229 228 225 224
302 302 302 301 301 301 301 300 299 297 295 293 292 290 288 286 283 280 277 275 273 270 268 266 265 263 259 255 253 253 250 246 244 240 237 236 235 233 230 228 227 226 224
308 306 305 304 303 303 302 301 300 298 296 294 292 291 288 286 283 281 278 276 272 269 266 265 263 261 259 255 252 251 249 246 242 239 237 235 233 231 229 226 225 224 223
Height
5904 5903 5903 5902 5902 5901 5900 5900 5899 5899 5899 5899 5899 5899 5899 5899 5899 5899 5899 5899 5899 5899 5899 5899 5899 5898 5898 5898 5898 5897 5897 5897 5897 5897 5897 5897 5897 5897 5898 5898 5898 5899 5899
5904 5903 5902 5901 5901 5900 5899 5899 5899 5898 5898 5898 5898 5898 5898 5898 5898 5898 5899 5899 5899 5899 5899 5899 5899 5899 5898 5898 5898 5898 5898 5898 5898 5898 5898 5898 5898 5899 5899 5900 5900 5901 5901
5903 5902 5901 5900 5899 5899 5898 5898 5897 5897 5897 5897 5898 5898 5898 5898 5898 5898 5898 5898 5898 5899 5899 5899 5898 5898 5898 5898 5898 5898 5898 5899 5899 5899 5899 5899 5899 5900 5900 5901 5902 5902 5903
5902 5901 5900 5899 5898 5898 5897 5897 5896 5896 5896 5896 5896 5897 5897 5897 5897 5897 5897 5897 5897 5897 5897 5898 5898 5898 5898 5898 5898 5898 5898 5899 5899 5899 5899 5900 5900 5901 5901 5902 5903 5903 5904
5901 5900 5899 5898 5897 5896 5896 5895 5895 5895 5895 5895 5895 5895 5895 5895 5895 5895 5895 5895 5896 5896 5896 5896 5896 5896 5896 5897 5897 5898 5898 5898 5899 5899 5900 5900 5901 5901 5902 5903 5903 5904 5905
5900 5898 5897 5896 5895 5895 5894 5893 5893 5893 5893 5893 5893 5893 5893 5893 5893 5893 5893 5893 5894 5894 5894 5894 5894 5895 5895 5895 5896 5896 5897 5898 5898 5899 5899 5900 5901 5902 5902 5903 5904 5905 5906
5898 5896 5895 5894 5893 5893 5892 5892 5891 5891 5891 5891 5891 5891 5891 5891 5890 5891 5891 5891 5891 5891 5892 5892 5892 5892 5893 5893 5894 5895 5895 5896 5897 5898 5899 5899 5900 5901 5902 5903 5904 5905 5906
5895 5894 5893 5892 5891 5891 5890 5890 5889 5889 5889 5888 5888 5888 5888 5888 5888 5888 5888 5888 5888 5888 5889 5889 5890 5890 5891 5891 5891 5892 5893 5894 5895 5896 5897 5898 5899 5900 5901 5902 5903 5905 5906
5893 5892 5891 5890 5889 5889 5888 5887 5887 5886 5886 5886 5886 5886 5886 5886 5886 5885 5885 5885 5885 5885 5885 5886 5886 5887 5887 5888 5889 5889 5890 5891 5892 5894 5895 5896 5897 5899 5900 5901 5903 5904 5905
5890 5889 5888 5887 5886 5886 5885 5884 5884 5883 5883 5883 5882 5882 5882 5882 5882 5882 5882 5882 5882 5882 5882 5882 5883 5883 5884 5884 5885 5886 5887 5888 5889 5891 5892 5894 5895 5897 5898 5900 5901 5903 5905
5887 5885 5884 5883 5883 5882 5881 5880 5880 5879 5879 5879 5878 5878 5878 5879 5879 5879 5878 5878 5878 5878 5878 5878 5878 5879 5880 5880 5881 5882 5883 5884 5886 5887 5889 5891 5892 5894 5896 5898 5900 5901 5903
5883 5881 5880 5879 5878 5877 5877 5876 5875 5875 5874 5874 5874 5874 5874 5874 5874 5874 5874 5874 5874 5873 5873 5873 5873 5874 5874 5875 5877 5878 5879 5880 5882 5883 5885 5887 5889 5891 5893 5895 5897 5899 5901
5877 5876 5875 5874 5873 5872 5872 5871 5870 5870 5869 5869 5869 5869 5869 5869 5869 5869 5869 5869 5869 5868 5868 5868 5868 5868 5869 5870 5871 5872 5874 5875 5877 5879 5881 5883 5885 5887 5889 5891 5894 5896 5899
5873 5871 5870 5869 5868 5866 5866 5865 5864 5864 5863 5863 5862 5862 5863 5863 5863 5862 5863 5863 5863 5863 5862 5862 5862 5862 5863 5864 5865 5867 5868 5870 5872 5874 5876 5878 5880 5883 5885 5887 5890 5893 5895
5869 5867 5865 5864 5864 5862 5861 5859 5858 5857 5855 5855 5855 5856 5856 5856 5856 5856 5856 5856 5857 5857 5856 5856 5856 5856 5857 5857 5858 5860 5862 5864 5867 5869 5871 5873 5875 5878 5880 5883 5886 5889 5892
5865 5863 5861 5860 5859 5858 5856 5854 5852 5851 5850 5849 5849 5849 5849 5849 5849 5849 5849 5850 5850 5850 5850 5850 5849 5850 5850 5851 5851 5853 5855 5858 5860 5863 5865 5867 5869 5872 5875 5878 5881 5884 5887
5859 5858 5856 5855 5853 5852 5850 5848 5847 5846 5845 5844 5843 5843 5842 5842 5841 5841 5842 5842 5842 5843 5843 5843 5843 5843 5844 5844 5845 5847 5849 5851 5854 5856 5858 5861 5863 5866 5869 5872 5875 5878 5881
5853 5852 5851 5850 5849 5847 5845 5843 5842 5841 5840 5838 5837 5837 5836 5835 5834 5834 5835 5835 5835 5835 5836 5836 5837 5837 5837 5838 5838 5840 5842 5844 5847 5849 5852 5854 5857 5860 5863 5866 5870 5873 5876
5847 5846 5845 5844 5842 5841 5839 5838 5836 5835 5834 5832 5831 5830 5829 5828 5828 5828 5828 5827 5828 5828 5829 5829 5830 5830 5830 5831 5831 5833 5835 5837 5839 5842 5845 5847 5850 5853 5857 5860 5863 5867 5870
5842 5841 5840 5838 5836 5834 5833 5831 5830 5828 5827 5825 5824 5822 5822 5821 5821 5820 5820 5819 5820 5820 5820 5821 5821 5822 5822 5823 5824 5825 5827 5829 5831 5834 5837 5840 5843 5846 5850 5853 5857 5861 5864
5837 5835 5833 5831 5829 5827 5825 5823 5822 5820 5819 5817 5816 5815 5814 5813 5812 5812 5811 5811 5811 5811 5811 5812 5813 5814 5814 5815 5816 5817 5819 5821 5823 5826 5829 5832 5836 5839 5843 5846 5850 5854 5858
5831 5829 5827 5825 5822 5820 5818 5816 5813 5812 5810 5809 5807 5806 5805 5804 5803 5802 5802 5802 5802 5802 5802 5802 5803 5804 5805 5806 5807 5808 5811 5814 5815 5818 5821 5824 5828 5831 5835 5839 5843 5847 5851
5826 5824 5821 5819 5816 5813 5811 5808 5806 5803 5801 5800 5798 5797 5795 5794 5793 5793 5792 5792 5792 5792 5792 5793 5793 5794 5796 5797 5798 5800 5802 5805 5807 5810 5813 5816 5820 5823 5828 5832 5836 5840 5845
5821 5819 5816 5813 5810 5807 5804 5801 5798 5795 5793 5791 5789 5787 5786 5784 5783 5783 5782 5782 5781 5781 5782 5782 5783 5784 5786 5787 5789 5790 5793 5795 5798 5802 5805 5808 5811 5815 5820 5824 5829 5833 5838
5816 5813 5810 5807 5804 5800 5797 5794 5791 5788 5785 5782 5780 5778 5776 5774 5773 5772 5771 5771 5771 5771 5771 5771 5772 5774 5775 5777 5779 5781 5783 5785 5788 5792 5796 5800 5803 5807 5811 5816 5821 5825 5830
5812 5808 5805 5801 5798 5794 5791 5787 5783 5780 5777 5774 5771 5768 5766 5764 5762 5761 5760 5760 5760 5759 5760 5761 5761 5763 5765 5767 5769 5770 5773 5776 5779 5783 5787 5791 5794 5798 5802 5807 5812 5817 5822